This is the latest recevied weather packets stored in our database for station/object IW9CSJ-13. If no packets are shown the sender has not sent any weather packets the latest 10 day(s).
| Time | Temp. | Humidity | Pressure | Rain* | Wind** | Luminosity | Snow |
|---|---|---|---|---|---|---|---|
| 1777829721 | 15.56° C | 57% | 1018.1 hPa | 0 mm | - | - | - |
| 1777829421 | 15.56° C | 56% | 1018 hPa | 0 mm | - | - | - |
| 1777829121 | 15.56° C | 56% | 1017.9 hPa | 0 mm | - | - | - |
| 1777828822 | 16.11° C | 56% | 1017.9 hPa | 0 mm | - | - | - |
| 1777828220 | 16.11° C | 57% | 1017.8 hPa | 0 mm | - | - | - |
| 1777827918 | 16.11° C | 57% | 1017.8 hPa | 0 mm | - | - | - |
| 1777827622 | 16.11° C | 57% | 1017.9 hPa | 0 mm | - | - | - |
| 1777827319 | 16.11° C | 57% | 1017.9 hPa | 0 mm | - | - | - |
| 1777827018 | 16.67° C | 55% | 1017.7 hPa | 0 mm | - | - | - |
| 1777826720 | 16.67° C | 55% | 1017.7 hPa | 0 mm | - | - | - |
| 1777826121 | 16.67° C | 54% | 1017.6 hPa | 0 mm | - | - | - |
| 1777825819 | 16.67° C | 55% | 1017.6 hPa | 0 mm | - | - | - |
| 1777825519 | 16.67° C | 54% | 1017.6 hPa | 0 mm | - | - | - |
| 1777824620 | 16.67° C | 58% | 1017.4 hPa | 0 mm | - | - | - |
| 1777824318 | 16.67° C | 58% | 1017.4 hPa | 0 mm | - | - | - |
| 1777824021 | 16.67° C | 58% | 1017.4 hPa | 0 mm | - | - | - |
| 1777823721 | 16.67° C | 58% | 1017.3 hPa | 0 mm | - | - | - |
| 1777823420 | 16.67° C | 59% | 1017.4 hPa | 0 mm | - | - | - |
| 1777822519 | 17.22° C | 58% | 1017.4 hPa | 0 mm | - | - | - |
| 1777822221 | 17.22° C | 57% | 1017.3 hPa | 0 mm | - | - | - |
| 1777821922 | 17.22° C | 58% | 1017.5 hPa | 0 mm | - | - | - |
| 1777821620 | 17.22° C | 58% | 1017.5 hPa | 0 mm | - | - | - |
| 1777821022 | 17.22° C | 60% | 1017.5 hPa | 0 mm | - | - | - |
| 1777820721 | 17.22° C | 60% | 1017.4 hPa | 0 mm | - | - | - |
| 1777820425 | 17.22° C | 61% | 1017.4 hPa | 0 mm | - | - | - |
* Rain latest hour (hover to see other rain measurements)
** Current wind speed in m/s (hover to see current wind gust speed)